Location: 3 Angels Observatory
(30.5437°N, 88.5068°W)
Time: 20:33:45
(UTC-05:00)

Oscar 19 - Visible Passes

Search period start: 24 June 2016 00:00
Search period end: 04 July 2016 00:00
Orbit: 773 x 791 km, 98.5° (Epoch: 24 June)

Date Brightness Start Highest point End Pass type
(mag) Time Alt. Az. Time Alt. Az. Time Alt. Az.
24 Jun 12.2 01:49:08 10° NNE 01:52:03 29° NE 01:52:03 29° NE visible
24 Jun 12.4 03:29:24 10° NNW 03:32:37 19° WNW 03:32:37 19° WNW visible
25 Jun 13.0 01:18:31 10° NE 01:19:52 14° ENE 01:19:52 14° ENE visible
25 Jun 11.6 02:56:37 10° N 03:00:25 36° NW 03:00:25 36° NW visible
26 Jun 11.4 02:24:33 10° NNE 02:28:14 48° N 02:28:14 48° N visible
27 Jun 12.1 01:53:01 10° NNE 01:56:02 31° NE 01:56:02 31° NE visible
27 Jun 12.5 03:33:34 10° NNW 03:36:35 17° WNW 03:36:35 17° WNW visible
28 Jun 13.0 01:22:16 10° NE 01:23:50 16° ENE 01:23:50 16° ENE visible
28 Jun 11.7 03:00:40 10° N 03:04:24 33° NW 03:04:24 33° NW visible
29 Jun 11.4 02:28:31 10° N 02:32:12 48° N 02:32:12 48° N visible
30 Jun 12.1 01:56:55 10° NNE 02:00:00 33° NE 02:00:00 33° NE visible
30 Jun 12.5 03:37:47 10° NNW 03:40:33 16° WNW 03:40:33 16° WNW visible
01 Jul 12.9 01:26:02 10° NE 01:27:48 17° ENE 01:27:48 17° ENE visible
01 Jul 11.8 03:04:43 10° N 03:08:21 30° NW 03:08:21 30° NW visible
02 Jul 11.4 02:32:30 10° N 02:36:09 46° N 02:36:09 46° N visible
03 Jul 12.0 02:00:50 10° NNE 02:03:57 35° NE 02:03:57 35° NE visible
03 Jul 12.6 03:42:03 10° NW 03:44:30 14° WNW 03:44:30 14° WNW visible
